Terminal Aerodrome Forecast
Issued by NWS Twin Cities, MN

Home | Current Version | Previous Version | Text Only | Print | Product List | Glossary Off
Versions: 1 2 3 4 5 6 7 8 9 10 11 12 13 14 15 16 17

000
FTUS43 KMPX 180500
TAFEAU
TAF
KEAU 180522Z 1806/1906 28012KT P6SM -SN BKN035
     FM180800 28010KT P6SM OVC035
     FM181200 26009KT P6SM BKN120=

USA.gov is the U.S. government's official web portal to all federal, state and local government web resources and services.